Location: Bemmer
(51.5498°N, 5.6249°E)
Time: 03:07:26
(UTC+00:00)

USA 81 - Pass Details

Date: 03 March 2021
Orbit: 784 x 789 km, 85.0° (Epoch: 13 April)

Event Time Altitude Azimuth Distance (km) Brightness Sun altitude
Exits shadow 20:17:33 53° 22° (NNE) 963 4.4 -27.4°
Drops below altitude 10° 20:21:37 10° 9° (N) 2,361 6.7 -28.0°
Sets 20:23:59 0° 8° (N) 3,293 7.5 -28.3°
